[[{"header":{"parameterUnit":"m.s-1","parameterCategory":2,"la1":30.2991,"la2":30.254,"lo1":-89.0895,"lo2":-89.0444,"dy":0.0017,"dx":0.0017,"nx":28,"ny":28,"refTime":"2023-11-06T09:00:00:Z","depth":"0","parameterNumber":2,"parameterNumberName":"U-component_of_CURRENTS"},"data":[0,0,0,0,0,0,0,0,0,0,0,0,0,0,0,0,0,0,0,0,0,0,0,0,0,0,0,0,0,0,0,0,0,0,0,0,0,0,0,0,0,0,0,0,0,0,0,0,0,0,0,0,0,0,0,0,0,0,0.2319,0.2318,0,0.2239,0.2238,0.2238,0.217,0.217,0.2169,0.2168,0.2143,0.2143,0.2143,0,0,0,0,0,0,0,0,0,0,0,0,0,0.2386,0.2385,0.2319,0.2318,0.2317,0.224,0.2238,0.2237,0.217,0.217,0.2169,0.2168,0.2143,0.2143,0.2143,0,0,0,0,0,0,0,0,0,0,0,0,0,0.2336,0.2385,0.2319,0.2275,0.227,0.224,0.2238,0.2237,0.2171,0.217,0.2169,0.2168,0.2143,0.2143,0.2143,0.2162,0,0,0.2143,0.2143,0,0,0,0,0,0,0,0,0.2339,0.2333,0.2282,0.2278,0.2273,0.2215,0.2253,0.2215,0.2171,0.2208,0.2168,0.2167,0.2173,0.2171,0.2156,0.2161,0.216,0.2143,0.2143,0.2143,0.2143,0,0,0,0,0,0,0,0.2342,0.2336,0.2286,0.2281,0.2276,0.225,0.2242,0.2245,0.2197,0.2204,0.2199,0.2192,0.2171,0.2156,0.2155,0.216,0.2143,0.2143,0.2143,0.2143,0.2286,0.229,0,0,0,0,0,0,0.2356,0.234,0.2289,0.2284,0.2305,0.225,0.2241,0.2233,0.2196,0.2189,0.2193,0.2189,0.2157,0.2155,0.2154,0.2224,0.2143,0.2143,0.2143,0.2283,0.2287,0.2291,0,0,0,0,0,0,0.2358,0.2353,0.2292,0.2311,0.2301,0.225,0.2242,0.2232,0.2219,0.2187,0.2181,0.219,0.2156,0.2154,0.2189,0.2221,0.2143,0.2142,0.2278,0.2284,0.2289,0.2332,0,0,0,0,0,0,0.236,0.2354,0.2355,0.2312,0.2301,0.2288,0.2243,0.2232,0.2217,0.2211,0.2183,0.2179,0.2155,0.219,0.2189,0.2219,0.2142,0.2273,0.2281,0.2287,0.2326,0.2339,0.235,0,0,0,0,0,0.2363,0.2366,0.2356,0.235,0.2304,0.2289,0.2282,0.224,0.2218,0.2223,0.2221,0.218,0.2236,0.2192,0.219,0.2221,0.227,0.2278,0.2287,0.2321,0.2337,0.235,0,0,0,0,0,0,0.2391,0.2358,0.2346,0.2338,0.2324,0.2278,0.2272,0.2251,0.2248,0.2244,0.2216,0.2214,0.2267,0.2253,0.2205,0.2295,0.2252,0.2261,0.2279,0.2293,0.2305,0.2275,0.2142,0,0,0,0,0,0.2402,0.2394,0.2368,0.2361,0.2357,0.232,0.2308,0.2285,0.2274,0.2268,0.2254,0.2265,0.2303,0.2302,0.2329,0.2358,0.2362,0.2389,0.2401,0.241,0.2393,0.2456,0.247,0.232,0.232,0.232,0,0,0.2407,0.239,0.2383,0.2367,0.2347,0.2337,0.231,0.2298,0.2296,0.2271,0.2276,0.2309,0.233,0.2377,0.2398,0.2359,0.2463,0.2421,0.2428,0.2405,0.2466,0.248,0.2492,0.2326,0.2325,0.2324,0,0,0.24,0.2405,0.2388,0.2386,0.2367,0.2356,0.236,0.2333,0.2332,0.2352,0.2358,0.2409,0.2429,0.2454,0.2471,0.2569,0.2541,0.2592,0.2596,0.2659,0.267,0.2679,0.272,0.2733,0.2576,0.2576,0.2576,0,0.2401,0.2381,0.2384,0.2372,0.2364,0.2368,0.2353,0.2365,0.2355,0.2363,0.2365,0.2443,0.2465,0.2528,0.257,0.2589,0.2613,0.2527,0.2668,0.2678,0.2687,0.2726,0.2739,0.2579,0.2579,0.2578,0.2578,0,0.2377,0.2368,0.2365,0.235,0.2354,0.235,0.2366,0.2383,0.2392,0.2394,0.2467,0.2517,0.2548,0.2595,0.2605,0.2694,0.2689,0.2688,0.2614,0.2704,0.2741,0.2754,0.2584,0.2583,0.2582,0.2581,0,0,0.2345,0.2343,0.2339,0.2327,0.2342,0.2335,0.2369,0.2385,0.2392,0.2442,0.2458,0.2569,0.2589,0.2615,0.2657,0.2716,0.2822,0.2725,0.2727,0.2732,0.2951,0.2905,0.2915,0.2844,0.2846,0.2848,0.2954,0,0.2314,0.2282,0.2298,0.2281,0.2267,0.2303,0.2326,0.2354,0.2391,0.2421,0.2506,0.2552,0.26,0.2626,0.2701,0.2791,0.2857,0.2792,0.289,0.2892,0.2814,0.2929,0.2857,0.2942,0.2967,0.2969,0.2971,0,0.2272,0.2258,0.2228,0.2232,0.2231,0.2233,0.2263,0.2287,0.2356,0.2388,0.2455,0.2509,0.2616,0.2647,0.2825,0.2781,0.287,0.2941,0.2947,0.2887,0.2871,0.2859,0.2965,0.2828,0.299,0.2989,0.2987,0,0.222,0.2207,0.2181,0.2182,0.2195,0.2197,0.2213,0.2265,0.2288,0.2364,0.2386,0.2507,0.257,0.2704,0.2849,0.2844,0.3035,0.304,0.3085,0.3082,0.3029,0.3016,0.2979,0.3174,0.3174,0.3173,0.3173,0,0.2174,0.2152,0.2152,0.2136,0.2115,0.2145,0.2144,0.2181,0.2237,0.227,0.2361,0.2418,0.2593,0.2713,0.2845,0.2999,0.3034,0.3101,0.3116,0.3046,0.3035,0.2915,0.2856,0.3177,0.3177,0.3176,0.3175,0,0.2117,0.2117,0.2087,0.2088,0.2085,0.2071,0.2092,0.2104,0.2161,0.221,0.2234,0.2368,0.2522,0.2681,0.2897,0.2984,0.3048,0.3181,0.3072,0.3072,0.2962,0.2909,0.2798,0.2765,0.3245,0.3244,0.3244,0,0.2083,0.2059,0.2041,0.2024,0.2021,0.201,0.2011,0.206,0.2086,0.2187,0.2215,0.2353,0.2457,0.2723,0.2919,0.3118,0.3026,0.3137,0.312,0.295,0.2904,0.2763,0.2735,0.3083,0.3081,0.308,0.3079,0,0.2024,0.2019,0.1996,0.1959,0.1944,0.1938,0.1948,0.1953,0.2032,0.2073,0.2156,0.2235,0.2492,0.2652,0.2889,0.3024,0.2951,0.3115,0.2984,0.2808,0.261,0.2586,0.2997,0.3067,0.3068,0.3069,0.307,0.307,0.198,0.1953,0.1923,0.1886,0.187,0.1863,0.1849,0.1884,0.1908,0.197,0.2079,0.2172,0.2387,0.2716,0.2834,0.2908,0.29,0.2856,0.2822,0.2704,0.2611,0.2975,0.3025,0.3026,0.3027,0.3028,0.3028,0,0.1916,0.189,0.1855,0.1809,0.1775,0.1794,0.1803,0.1796,0.1808,0.1891,0.1957,0.2108,0.2268,0.246,0.264,0.2606,0.2576,0.2522,0.2313,0.2322,0.2697,0.2626,0.2535,0.2535,0.2535,0.2535,0.2536,0.2536,0.1879,0.1823,0.1803,0.1722,0.1698,0.1665,0.1664,0.1667,0.1708,0.1746,0.1799,0.1876,0.2021,0.2165,0.221,0.223,0.2089,0.1992,0.1991,0.2235,0.2262,0.2288,0.2205,0.2027,0.2027,0.156,0.1556,0.1553]},{"header":{"parameterUnit":"m.s-1","parameterCategory":2,"la1":30.2991,"la2":30.254,"lo1":-89.0895,"lo2":-89.0444,"dy":0.0017,"dx":0.0017,"nx":28,"ny":28,"refTime":"2023-11-06T09:00:00:Z","depth":"0","parameterNumber":3,"parameterNumberName":"V-component_of_CURRENTS"},"data":[0,0,0,0,0,0,0,0,0,0,0,0,0,0,0,0,0,0,0,0,0,0,0,0,0,0,0,0,0,0,0,0,0,0,0,0,0,0,0,0,0,0,0,0,0,0,0,0,0,0,0,0,0,0,0,0,0,0,0.0233,0.0233,0,0.0243,0.0243,0.0243,0.0217,0.0216,0.0215,0.0215,0.022,0.0221,0.0221,0,0,0,0,0,0,0,0,0,0,0,0,0,0.022,0.022,0.0233,0.0233,0.0233,0.0243,0.0243,0.0243,0.0217,0.0216,0.0215,0.0214,0.0219,0.022,0.0222,0,0,0,0,0,0,0,0,0,0,0,0,0,0.0228,0.022,0.0233,0.0221,0.022,0.0242,0.0243,0.0243,0.0218,0.0216,0.0215,0.0214,0.0219,0.022,0.0222,0.0256,0,0,0.0226,0.0227,0,0,0,0,0,0,0,0,0.0227,0.0228,0.0223,0.0222,0.0221,0.0227,0.024,0.0247,0.0218,0.0219,0.0215,0.0213,0.0222,0.0223,0.0229,0.0256,0.0256,0.0226,0.0227,0.0228,0.0228,0,0,0,0,0,0,0,0.0227,0.0228,0.0237,0.0223,0.0222,0.0224,0.0224,0.0241,0.0228,0.0219,0.0217,0.0217,0.0221,0.0228,0.0229,0.0257,0.0226,0.0227,0.0228,0.0229,0.0351,0.0353,0,0,0,0,0,0,0.0224,0.0227,0.0237,0.0238,0.022,0.0226,0.0225,0.0227,0.0228,0.0227,0.0219,0.0216,0.0226,0.0227,0.0229,0.0309,0.0228,0.0229,0.023,0.0349,0.0352,0.0354,0,0,0,0,0,0,0.0224,0.0225,0.0237,0.0232,0.0233,0.0227,0.0229,0.0227,0.0226,0.0228,0.0226,0.0218,0.0225,0.0227,0.0267,0.0307,0.0229,0.0231,0.0346,0.035,0.0353,0.0444,0,0,0,0,0,0,0.0224,0.0225,0.0227,0.0232,0.0234,0.026,0.023,0.0229,0.0229,0.0226,0.0227,0.0226,0.0224,0.0265,0.0269,0.0308,0.0232,0.0343,0.0348,0.0352,0.0438,0.045,0.0461,0,0,0,0,0,0.0223,0.0234,0.0227,0.0228,0.0236,0.0261,0.0263,0.0254,0.023,0.0245,0.0255,0.0226,0.0296,0.0269,0.0272,0.0312,0.0341,0.0346,0.0351,0.0433,0.0448,0.0461,0,0,0,0,0,0,0.0225,0.0232,0.0225,0.0235,0.025,0.0256,0.0267,0.0256,0.0273,0.0269,0.026,0.0262,0.0314,0.0303,0.0273,0.0362,0.0313,0.0319,0.0374,0.0388,0.0399,0.0403,0.0233,0,0,0,0,0,0.0228,0.0239,0.0247,0.0257,0.0266,0.0265,0.0271,0.0268,0.0282,0.0286,0.0295,0.031,0.0341,0.0354,0.0379,0.0426,0.04,0.0454,0.0465,0.0475,0.0482,0.0483,0.0494,0.0372,0.0372,0.0372,0,0,0.023,0.0236,0.024,0.0259,0.0267,0.0304,0.0266,0.0284,0.0321,0.0287,0.0343,0.0351,0.0364,0.0425,0.0446,0.0419,0.0499,0.0482,0.049,0.0492,0.0489,0.0501,0.0511,0.0376,0.0375,0.0375,0,0,0.025,0.0249,0.0269,0.0293,0.0313,0.0326,0.0331,0.035,0.0363,0.0417,0.0409,0.0444,0.0485,0.0511,0.0526,0.0615,0.056,0.0617,0.0677,0.0678,0.0688,0.0696,0.068,0.0685,0.0621,0.0621,0.0621,0,0.0248,0.0281,0.028,0.0317,0.0346,0.0339,0.0383,0.0408,0.0441,0.0466,0.0448,0.0526,0.0532,0.0607,0.0642,0.0641,0.062,0.0622,0.0691,0.0699,0.0705,0.0687,0.0692,0.0626,0.0625,0.0625,0.0624,0,0.0291,0.0326,0.0345,0.0394,0.0426,0.0464,0.0501,0.0537,0.0549,0.057,0.064,0.0658,0.0695,0.0712,0.0706,0.0768,0.0731,0.0704,0.0651,0.0722,0.0699,0.0703,0.0633,0.0631,0.063,0.0629,0,0,0.0268,0.0356,0.0365,0.0411,0.0473,0.0506,0.0579,0.0643,0.0685,0.0724,0.0779,0.0845,0.0829,0.0846,0.084,0.085,0.0881,0.0801,0.0798,0.0775,0.0868,0.0829,0.0828,0.0858,0.0859,0.086,0.0832,0,0.0303,0.0391,0.0427,0.0524,0.0579,0.0617,0.0686,0.0743,0.0782,0.0837,0.0859,0.0907,0.0887,0.0899,0.0913,0.0889,0.0895,0.089,0.081,0.0808,0.0756,0.0833,0.085,0.0826,0.0835,0.0836,0.0836,0,0.0337,0.0397,0.0495,0.0604,0.0629,0.0684,0.0785,0.0845,0.0918,0.0943,0.0986,0.0987,0.103,0.0985,0.0987,0.0979,0.0935,0.0909,0.0906,0.084,0.0776,0.0757,0.0831,0.0743,0.0841,0.0841,0.084,0,0.0337,0.0448,0.053,0.057,0.0686,0.0735,0.0791,0.0875,0.0931,0.0998,0.1032,0.1068,0.1082,0.1051,0.1006,0.099,0.0983,0.0946,0.0873,0.0868,0.0853,0.0845,0.0826,0.094,0.094,0.094,0.094,0,0.0372,0.0439,0.0536,0.0587,0.0682,0.0749,0.0843,0.0901,0.0979,0.1049,0.1074,0.1125,0.1097,0.109,0.1031,0.0971,0.0999,0.09,0.087,0.0886,0.0882,0.0777,0.0723,0.0939,0.094,0.094,0.094,0,0.0377,0.0438,0.0539,0.0655,0.0689,0.0756,0.0867,0.0934,0.1,0.1087,0.1107,0.1168,0.1165,0.1124,0.1073,0.1003,0.0897,0.0908,0.0922,0.0894,0.0731,0.0682,0.0634,0.0603,0.0823,0.0822,0.0822,0,0.04,0.0453,0.0574,0.0627,0.0683,0.0778,0.0845,0.0934,0.1,0.1117,0.1159,0.1191,0.1235,0.1156,0.1047,0.0944,0.0872,0.0861,0.0841,0.0742,0.0664,0.0643,0.0619,0.0856,0.0856,0.0856,0.0855,0,0.045,0.0481,0.0558,0.0655,0.0732,0.0826,0.0921,0.0971,0.1077,0.1148,0.1239,0.1284,0.1239,0.1177,0.104,0.0954,0.0807,0.0847,0.0757,0.0706,0.0672,0.0621,0.0836,0.0852,0.0852,0.0853,0.0853,0.0853,0.0478,0.0529,0.0612,0.0703,0.0783,0.0874,0.0943,0.1031,0.113,0.1254,0.1289,0.1382,0.1292,0.1128,0.0996,0.0757,0.0762,0.0684,0.0636,0.0626,0.0592,0.0788,0.0758,0.0758,0.0758,0.0757,0.0757,0,0.0525,0.0575,0.066,0.0767,0.0844,0.0884,0.1,0.1063,0.1163,0.1292,0.1378,0.1422,0.1265,0.109,0.0784,0.0594,0.0549,0.049,0.0477,0.0465,0.0655,0.0651,0.0583,0.0583,0.0583,0.0583,0.0583,0.0583,0.0554,0.063,0.0671,0.0801,0.0868,0.0967,0.1029,0.1113,0.1213,0.1372,0.1477,0.1571,0.1458,0.0879,0.0502,0.0415,0.0293,0.0269,0.0199,0.0328,0.0343,0.0357,0.0342,0.021,0.0209,0.0061,0.0059,0.0058]}],[{"header":{"parameterUnit":"m.s-1","parameterCategory":2,"la1":30.2991,"la2":30.254,"lo1":-89.0895,"lo2":-89.0444,"dy":0.0017,"dx":0.0017,"nx":28,"ny":28,"refTime":"2023-11-06T09:00:00:Z","depth":"2","parameterNumber":2,"parameterNumberName":"U-component_of_CURRENTS"},"data":[0,0,0,0,0,0,0,0,0,0,0,0,0,0,0,0,0,0,0,0,0,0,0,0,0,0,0,0,0,0,0,0,0,0,0,0,0,0,0,0,0,0,0,0,0,0,0,0,0,0,0,0,0,0,0,0,0,0,0.0616,0.0616,0,0.0663,0.0663,0.0664,0.0714,0.0714,0.0715,0.0715,0.0813,0.0815,0.0817,0,0,0,0,0,0,0,0,0,0,0,0,0,0.0592,0.0592,0.0616,0.0616,0.0617,0.0663,0.0663,0.0664,0.0714,0.0714,0.0715,0.0716,0.0812,0.0814,0.0817,0,0,0,0,0,0,0,0,0,0,0,0,0,0.0618,0.0592,0.0616,0.0646,0.0649,0.0662,0.0663,0.0664,0.0713,0.0714,0.0715,0.0716,0.0811,0.0814,0.0817,0.0818,0,0,0.0826,0.0828,0,0,0,0,0,0,0,0,0.0616,0.0619,0.0641,0.0644,0.0647,0.0682,0.0691,0.0718,0.0713,0.069,0.0715,0.0717,0.0772,0.0778,0.0786,0.0823,0.0827,0.0827,0.0829,0.083,0.0831,0,0,0,0,0,0,0,0.0615,0.0617,0.0636,0.0641,0.0645,0.0665,0.067,0.0696,0.0728,0.0692,0.0696,0.0699,0.0775,0.0783,0.0789,0.0829,0.0827,0.0829,0.0831,0.0832,0.0926,0.0926,0,0,0,0,0,0,0.0604,0.0615,0.0634,0.0637,0.0632,0.0665,0.067,0.0671,0.0726,0.0735,0.0698,0.0701,0.0778,0.0786,0.0793,0.0857,0.083,0.0833,0.0834,0.0925,0.0926,0.0927,0,0,0,0,0,0,0.0603,0.0605,0.0632,0.0626,0.0631,0.0664,0.0665,0.0672,0.0695,0.073,0.074,0.0716,0.0779,0.0789,0.0836,0.0859,0.0834,0.0837,0.0924,0.0925,0.0926,0.0948,0,0,0,0,0,0,0.0602,0.0605,0.0609,0.0626,0.0631,0.0647,0.0664,0.0672,0.0694,0.0699,0.0749,0.0758,0.078,0.0831,0.0839,0.0863,0.0839,0.0924,0.0925,0.0926,0.0946,0.0949,0.0952,0,0,0,0,0,0.0601,0.0605,0.0609,0.0611,0.0633,0.0647,0.0652,0.0679,0.0694,0.0704,0.0745,0.0757,0.0844,0.0834,0.0843,0.0869,0.0923,0.0924,0.0926,0.0945,0.0949,0.0952,0,0,0,0,0,0,0.0607,0.0611,0.0615,0.0623,0.0635,0.0655,0.0668,0.0683,0.0721,0.0733,0.0768,0.078,0.083,0.0842,0.083,0.0897,0.0884,0.0887,0.0896,0.0899,0.0902,0.0916,0.0842,0,0,0,0,0,0.0604,0.0604,0.0614,0.0621,0.0626,0.0647,0.0659,0.0675,0.0705,0.0723,0.076,0.0799,0.0839,0.0863,0.0894,0.0931,0.0953,0.0951,0.0954,0.0957,0.0973,0.1022,0.1031,0.0931,0.0931,0.0931,0,0,0.0609,0.0611,0.0612,0.0622,0.0633,0.065,0.0658,0.0675,0.0702,0.0728,0.0782,0.0811,0.085,0.0896,0.0919,0.0913,0.0994,0.0959,0.0961,0.0976,0.1024,0.1034,0.1043,0.0932,0.0932,0.0932,0,0,0.0616,0.0617,0.062,0.0629,0.0643,0.0656,0.0663,0.0688,0.0714,0.0757,0.0789,0.0836,0.0886,0.0928,0.0953,0.0989,0.1007,0.0991,0.1023,0.1069,0.1078,0.1086,0.1118,0.1129,0.0994,0.0994,0.0994,0,0.0626,0.0628,0.0625,0.0635,0.065,0.0661,0.068,0.0704,0.0747,0.078,0.0778,0.0881,0.0906,0.0984,0.0996,0.0999,0.1021,0.1007,0.1074,0.1083,0.1091,0.1122,0.1134,0.0995,0.0995,0.0995,0.0995,0,0.0634,0.0642,0.0646,0.0661,0.0677,0.0692,0.0718,0.0749,0.0777,0.0809,0.0886,0.0924,0.0993,0.0999,0.1012,0.1085,0.108,0.1071,0.1067,0.1102,0.1132,0.1144,0.0997,0.0996,0.0996,0.0996,0,0,0.0651,0.0652,0.0657,0.0667,0.0693,0.0707,0.0753,0.0804,0.085,0.0891,0.0963,0.1024,0.1053,0.1083,0.1105,0.1139,0.1205,0.113,0.1132,0.1165,0.1303,0.1231,0.1237,0.1208,0.121,0.1212,0.1299,0,0.0666,0.0677,0.0683,0.0714,0.0725,0.0755,0.0799,0.0848,0.0895,0.0964,0.1017,0.1085,0.1082,0.112,0.116,0.1201,0.1239,0.1182,0.1262,0.1265,0.1199,0.125,0.1014,0.1066,0.131,0.1312,0.1314,0,0.0683,0.0685,0.0707,0.0739,0.075,0.0778,0.0856,0.0897,0.0988,0.1031,0.1111,0.1152,0.1239,0.121,0.1316,0.1281,0.1302,0.1315,0.1319,0.1257,0.1215,0.1072,0.1078,0.1334,0.1332,0.1331,0.1329,0,0.0691,0.0711,0.0727,0.0737,0.0773,0.0807,0.0842,0.0925,0.0975,0.1082,0.1134,0.1234,0.1295,0.1345,0.1388,0.1361,0.1481,0.1447,0.1402,0.1396,0.1215,0.119,0.1516,0.1515,0.1515,0.1515,0.1515,0,0.0705,0.0724,0.073,0.0739,0.0779,0.0811,0.0879,0.0934,0.1024,0.109,0.1172,0.1246,0.1331,0.1405,0.1425,0.1461,0.1522,0.1427,0.1423,0.1213,0.1188,0.1433,0.1422,0.1518,0.1518,0.1517,0.1516,0,0.072,0.0719,0.0738,0.0767,0.078,0.0814,0.0884,0.0934,0.1021,0.1111,0.1149,0.128,0.1382,0.1449,0.1538,0.1506,0.1542,0.1533,0.1277,0.1241,0.1415,0.1404,0.1496,0.1494,0.1493,0.1492,0.1491,0,0.073,0.0734,0.0751,0.0758,0.0773,0.0819,0.0852,0.0932,0.0983,0.1125,0.1167,0.1301,0.1376,0.1485,0.1426,0.1445,0.1553,0.1268,0.1169,0.143,0.1418,0.1409,0.1401,0.0937,0.0931,0.0927,0.0923,0,0.0749,0.0751,0.0757,0.0762,0.0785,0.0816,0.0867,0.09,0.0996,0.1072,0.1184,0.1252,0.1305,0.1233,0.1243,0.1208,0.1242,0.1177,0.1537,0.0974,0.0909,0.0894,0.0903,0.0884,0.0888,0.089,0.0893,0.0894,0.0766,0.0766,0.0759,0.0767,0.0785,0.0804,0.0824,0.0874,0.094,0.1005,0.1102,0.1126,0.1028,0.0934,0.0935,0.0927,0.099,0.0926,0.0937,0.0954,0.087,0.0805,0.0745,0.0748,0.075,0.0753,0.0755,0,0.0775,0.0763,0.0764,0.0763,0.0767,0.0788,0.0824,0.0826,0.087,0.0895,0.0947,0.0738,0.0661,0.0695,0.0576,0.0542,0.0508,0.0572,0.0512,0.0544,0.0575,0.0474,0.0243,0.0244,0.0244,0.0245,0,0,0.0777,0.0762,0.0748,0.0735,0.0741,0.0747,0.0758,0.0753,0.0753,0.0699,0.0656,0.0582,0.0576,0.0381,0.0314,0.0325,0.0457,0.0292,0.0664,0.062,0.0654,0.0697,0.0566,0,0,0,0,0]},{"header":{"parameterUnit":"m.s-1","parameterCategory":2,"la1":30.2991,"la2":30.254,"lo1":-89.0895,"lo2":-89.0444,"dy":0.0017,"dx":0.0017,"nx":28,"ny":28,"refTime":"2023-11-06T09:00:00:Z","depth":"2","parameterNumber":3,"parameterNumberName":"V-component_of_CURRENTS"},"data":[0,0,0,0,0,0,0,0,0,0,0,0,0,0,0,0,0,0,0,0,0,0,0,0,0,0,0,0,0,0,0,0,0,0,0,0,0,0,0,0,0,0,0,0,0,0,0,0,0,0,0,0,0,0,0,0,0,0,-0.0292,-0.0293,0,-0.0381,-0.0382,-0.0383,-0.0458,-0.0459,-0.046,-0.0461,-0.057,-0.0572,-0.0574,0,0,0,0,0,0,0,0,0,0,0,0,0,-0.0187,-0.0189,-0.0292,-0.0293,-0.0294,-0.0381,-0.0382,-0.0383,-0.0458,-0.0459,-0.046,-0.0461,-0.057,-0.0572,-0.0575,0,0,0,0,0,0,0,0,0,0,0,0,0,-0.0249,-0.0189,-0.0291,-0.0343,-0.0348,-0.0381,-0.0382,-0.0383,-0.0458,-0.0459,-0.046,-0.0462,-0.0569,-0.0572,-0.0575,-0.0566,0,0,-0.0584,-0.0586,0,0,0,0,0,0,0,0,-0.0245,-0.0252,-0.0334,-0.0339,-0.0346,-0.0411,-0.0385,-0.0446,-0.0457,-0.0415,-0.0461,-0.0462,-0.0519,-0.0526,-0.0538,-0.0571,-0.0576,-0.0585,-0.0587,-0.0588,-0.0589,0,0,0,0,0,0,0,-0.0241,-0.0249,-0.0326,-0.0335,-0.0342,-0.0362,-0.0372,-0.0397,-0.0457,-0.0419,-0.0425,-0.0436,-0.0522,-0.0534,-0.0541,-0.0578,-0.0585,-0.0587,-0.0589,-0.059,-0.0659,-0.0659,0,0,0,0,0,0,-0.0231,-0.0245,-0.0323,-0.0329,-0.0299,-0.0363,-0.0374,-0.0388,-0.0457,-0.0469,-0.0435,-0.0439,-0.0529,-0.0537,-0.0545,-0.0548,-0.0588,-0.0591,-0.0592,-0.0659,-0.0659,-0.0659,0,0,0,0,0,0,-0.0228,-0.0237,-0.0319,-0.029,-0.0302,-0.0363,-0.0378,-0.0389,-0.0414,-0.0469,-0.0482,-0.0451,-0.053,-0.0541,-0.0572,-0.0552,-0.0592,-0.0595,-0.0659,-0.0659,-0.0659,-0.0547,0,0,0,0,0,0,-0.0225,-0.0235,-0.0242,-0.0289,-0.0303,-0.0329,-0.0377,-0.0389,-0.0419,-0.0426,-0.0487,-0.0498,-0.0532,-0.0567,-0.0575,-0.0557,-0.0597,-0.0659,-0.0659,-0.0659,-0.0551,-0.0543,-0.0537,0,0,0,0,0,-0.0221,-0.0217,-0.0242,-0.0251,-0.031,-0.0328,-0.0336,-0.0384,-0.0418,-0.0415,-0.0465,-0.0497,-0.0573,-0.0569,-0.0579,-0.0561,-0.0659,-0.0659,-0.0659,-0.0554,-0.0545,-0.0537,0,0,0,0,0,0,-0.0172,-0.0226,-0.0254,-0.0267,-0.0293,-0.0341,-0.0347,-0.0383,-0.042,-0.0433,-0.0491,-0.0504,-0.0525,-0.0563,-0.0558,-0.0585,-0.0623,-0.0625,-0.054,-0.0532,-0.0525,-0.05,-0.06,0,0,0,0,0,-0.0165,-0.0179,-0.0226,-0.0235,-0.0248,-0.0299,-0.0316,-0.0346,-0.0386,-0.0405,-0.0449,-0.0498,-0.0528,-0.0547,-0.0581,-0.059,-0.0622,-0.059,-0.0583,-0.0576,-0.0565,-0.0607,-0.0602,-0.0658,-0.0658,-0.0658,0,0,-0.0149,-0.018,-0.0189,-0.0226,-0.0254,-0.0255,-0.0312,-0.033,-0.0332,-0.0409,-0.0426,-0.0472,-0.0527,-0.0538,-0.0551,-0.0569,-0.0574,-0.0576,-0.057,-0.0562,-0.0606,-0.0601,-0.0596,-0.0658,-0.0658,-0.0658,0,0,-0.0114,-0.015,-0.0149,-0.0164,-0.0201,-0.0225,-0.0229,-0.0276,-0.0299,-0.0318,-0.0376,-0.041,-0.046,-0.0489,-0.0512,-0.0489,-0.0536,-0.0507,-0.0446,-0.0486,-0.0481,-0.0477,-0.0488,-0.0487,-0.0502,-0.0501,-0.0501,0,-0.0095,-0.0103,-0.0146,-0.0143,-0.015,-0.0207,-0.0195,-0.0216,-0.0267,-0.0278,-0.0311,-0.0387,-0.0432,-0.0445,-0.0438,-0.0469,-0.0495,-0.0466,-0.0474,-0.0471,-0.0469,-0.0482,-0.0481,-0.0496,-0.0497,-0.0497,-0.0498,0,-0.0059,-0.0064,-0.0059,-0.0076,-0.008,-0.0079,-0.0111,-0.0122,-0.016,-0.019,-0.0219,-0.0282,-0.0327,-0.0346,-0.0382,-0.0388,-0.041,-0.0457,-0.0486,-0.0456,-0.0472,-0.0473,-0.0488,-0.049,-0.0492,-0.0493,0,0,-0.0028,-0.0034,-0.0034,-0.0028,-0.0047,-0.0047,-0.0036,-0.0047,-0.0047,-0.0095,-0.0099,-0.0153,-0.0198,-0.0228,-0.0283,-0.0315,-0.0316,-0.037,-0.0375,-0.0363,-0.0383,-0.0362,-0.0362,-0.0365,-0.0366,-0.0366,-0.0391,0,0.0009,0.0033,0.0023,0.0055,0.0065,0.0038,0.0054,0.0039,0.0013,-0.0001,-0.0064,-0.0091,-0.015,-0.0173,-0.0209,-0.0297,-0.0318,-0.0303,-0.043,-0.0433,-0.0404,-0.0363,-0.0325,-0.0342,-0.0392,-0.0393,-0.0393,0,0.004,0.0053,0.0087,0.0111,0.0113,0.013,0.0141,0.0148,0.0124,0.0101,0.0069,0.0012,-0.0029,-0.0096,-0.02,-0.0189,-0.0268,-0.0335,-0.0339,-0.036,-0.0415,-0.0388,-0.0343,-0.0396,-0.0395,-0.0395,-0.0395,0,0.0067,0.0098,0.0127,0.0133,0.0152,0.0168,0.018,0.0173,0.0182,0.0165,0.0163,0.0099,0.0064,-0.0041,-0.0165,-0.0188,-0.0282,-0.034,-0.0388,-0.0388,-0.04,-0.0399,-0.0409,-0.0409,-0.0409,-0.0408,-0.0408,0,0.0099,0.0122,0.0141,0.0155,0.0197,0.0202,0.0238,0.024,0.0247,0.0264,0.0215,0.0214,0.0071,-0.0001,-0.0125,-0.024,-0.0252,-0.0357,-0.039,-0.0358,-0.0354,-0.0448,-0.0452,-0.0409,-0.0409,-0.0409,-0.0409,0,0.0113,0.0125,0.0158,0.019,0.0205,0.0231,0.0273,0.0298,0.0307,0.0331,0.0331,0.0294,0.0214,0.0082,-0.008,-0.0179,-0.0303,-0.0345,-0.0275,-0.0299,-0.039,-0.0388,-0.0397,-0.0396,-0.0396,-0.0395,-0.0395,0,0.0121,0.0137,0.0176,0.02,0.0214,0.0256,0.0286,0.0315,0.0344,0.0379,0.0393,0.035,0.0322,0.0135,-0.0027,-0.0196,-0.0272,-0.0295,-0.0336,-0.0356,-0.0388,-0.0387,-0.0386,-0.0305,-0.0304,-0.0303,-0.0303,0,0.0139,0.0144,0.017,0.0214,0.0251,0.0301,0.0349,0.0382,0.0422,0.0463,0.0508,0.05,0.0365,0.0213,0.0002,-0.0108,-0.0261,-0.0282,-0.033,-0.0309,-0.0271,-0.0302,-0.0304,-0.0295,-0.0296,-0.0296,-0.0297,-0.0297,0.0143,0.0161,0.0191,0.0235,0.0281,0.0343,0.0387,0.045,0.0521,0.0589,0.058,0.0543,0.0329,0.0066,-0.0048,-0.0151,-0.0183,-0.0289,-0.0292,-0.0296,-0.0275,-0.0238,-0.0251,-0.0251,-0.0252,-0.0252,-0.0252,0,0.0154,0.0175,0.0217,0.0271,0.0322,0.0344,0.0428,0.0485,0.0579,0.0608,0.0654,0.0403,0.0261,0.0066,-0.0058,-0.0168,-0.0161,-0.0218,-0.0216,-0.0223,-0.0229,-0.0205,-0.0163,-0.0163,-0.0163,-0.0163,0,0,0.0163,0.0194,0.0218,0.0297,0.0335,0.0406,0.0454,0.0556,0.059,0.0611,0.0549,0.0456,0.0198,0.0055,-0.0055,-0.0086,-0.0118,-0.008,-0.0141,-0.0128,-0.0132,-0.0259,-0.0228,0,0,0,0,0]}],[{"header":{"parameterUnit":"m.s-1","parameterCategory":2,"la1":30.2991,"la2":30.254,"lo1":-89.0895,"lo2":-89.0444,"dy":0.0017,"dx":0.0017,"nx":28,"ny":28,"refTime":"2023-11-06T09:00:00:Z","depth":"4","parameterNumber":2,"parameterNumberName":"U-component_of_CURRENTS"},"data":[0,0,0,0,0,0,0,0,0,0,0,0,0,0,0,0,0,0,0,0,0,0,0,0,0,0,0,0,0,0,0,0,0,0,0,0,0,0,0,0,0,0,0,0,0,0,0,0,0,0,0,0,0,0,0,0,0,0,-0.0303,-0.0304,0,-0.03,-0.03,-0.0299,-0.0245,-0.0244,-0.0243,-0.0242,-0.0229,-0.023,-0.0231,0,0,0,0,0,0,0,0,0,0,0,0,0,-0.0287,-0.0287,-0.0303,-0.0304,-0.0304,-0.03,-0.03,-0.0299,-0.0245,-0.0244,-0.0242,-0.0241,-0.0229,-0.023,-0.0231,0,0,0,0,0,0,0,0,0,0,0,0,0,-0.0288,-0.0288,-0.0303,-0.0278,-0.0276,-0.03,-0.03,-0.0299,-0.0245,-0.0244,-0.0242,-0.024,-0.0229,-0.023,-0.0231,-0.0272,0,0,-0.0234,-0.0235,0,0,0,0,0,0,0,0,-0.0288,-0.0288,-0.0282,-0.028,-0.0278,-0.0273,-0.0289,-0.0291,-0.0246,-0.0254,-0.0242,-0.024,-0.0246,-0.0246,-0.0245,-0.0271,-0.0271,-0.0234,-0.0235,-0.0235,-0.0236,0,0,0,0,0,0,0,-0.0288,-0.0288,-0.0299,-0.0282,-0.028,-0.0276,-0.0273,-0.0289,-0.0258,-0.0253,-0.025,-0.0254,-0.0244,-0.0244,-0.0245,-0.0271,-0.0234,-0.0235,-0.0236,-0.0236,-0.0266,-0.0267,0,0,0,0,0,0,-0.0294,-0.0288,-0.03,-0.0299,-0.0281,-0.0277,-0.0274,-0.0274,-0.0258,-0.0254,-0.0256,-0.0252,-0.0243,-0.0243,-0.0244,-0.0203,-0.0235,-0.0236,-0.0237,-0.0266,-0.0267,-0.0267,0,0,0,0,0,0,-0.0294,-0.0295,-0.03,-0.0296,-0.0296,-0.0279,-0.028,-0.0275,-0.0232,-0.026,-0.0255,-0.0212,-0.0242,-0.0242,-0.0226,-0.0205,-0.0237,-0.0238,-0.0266,-0.0266,-0.0267,-0.0179,0,0,0,0,0,0,-0.0293,-0.0295,-0.0302,-0.0296,-0.0297,-0.0291,-0.0282,-0.0277,-0.0241,-0.0234,-0.0223,-0.0222,-0.0241,-0.0224,-0.0227,-0.0208,-0.0239,-0.0266,-0.0266,-0.0267,-0.0181,-0.0176,-0.0171,0,0,0,0,0,-0.0292,-0.0302,-0.0302,-0.0304,-0.0305,-0.0291,-0.029,-0.0271,-0.024,-0.0223,-0.0211,-0.022,-0.0229,-0.0225,-0.0228,-0.0208,-0.0266,-0.0266,-0.0267,-0.0184,-0.0177,-0.0171,0,0,0,0,0,0,-0.0295,-0.0297,-0.0297,-0.0306,-0.0292,-0.0282,-0.0274,-0.0248,-0.0224,-0.0199,-0.0215,-0.0214,-0.0197,-0.0221,-0.0217,-0.0223,-0.0252,-0.0253,-0.0188,-0.0182,-0.0177,-0.0173,-0.024,0,0,0,0,0,-0.0304,-0.031,-0.0303,-0.0309,-0.0298,-0.0276,-0.0267,-0.0236,-0.0217,-0.0201,-0.0187,-0.019,-0.0212,-0.0206,-0.0224,-0.022,-0.0259,-0.0216,-0.021,-0.0205,-0.0208,-0.0261,-0.026,-0.0268,-0.0268,-0.0268,0,0,-0.0311,-0.0312,-0.0317,-0.0311,-0.0297,-0.0274,-0.0263,-0.0222,-0.0195,-0.0208,-0.0156,-0.0165,-0.0208,-0.0204,-0.0199,-0.0211,-0.0221,-0.0206,-0.0201,-0.0206,-0.0261,-0.026,-0.026,-0.0268,-0.0268,-0.0268,0,0,-0.0311,-0.0318,-0.0312,-0.0294,-0.0262,-0.0251,-0.0225,-0.0179,-0.0152,-0.011,-0.0125,-0.0121,-0.0119,-0.0158,-0.0181,-0.0164,-0.0193,-0.0158,-0.0121,-0.0171,-0.0171,-0.0171,-0.0199,-0.0203,-0.0153,-0.0152,-0.0152,0,-0.0314,-0.0306,-0.0307,-0.0282,-0.0266,-0.023,-0.0196,-0.0176,-0.0123,-0.0116,-0.0078,-0.0097,-0.011,-0.0157,-0.0134,-0.0151,-0.0171,-0.0133,-0.0163,-0.0164,-0.0166,-0.0195,-0.02,-0.0148,-0.0149,-0.0149,-0.015,0,-0.0302,-0.0285,-0.0272,-0.0239,-0.0223,-0.0181,-0.0154,-0.0117,-0.0067,-0.0054,-0.0044,-0.0057,-0.0069,-0.0076,-0.0086,-0.0112,-0.0118,-0.0148,-0.0171,-0.0159,-0.0191,-0.0198,-0.0142,-0.0144,-0.0145,-0.0146,0,0,-0.0315,-0.0274,-0.0263,-0.0239,-0.0185,-0.0166,-0.0131,-0.0111,-0.0098,-0.004,-0.0039,-0.0043,-0.0024,-0.005,-0.0069,-0.01,-0.0105,-0.0102,-0.0107,-0.0117,-0.0188,-0.0161,-0.0167,-0.0125,-0.0127,-0.0128,-0.0197,0,-0.0293,-0.025,-0.0233,-0.018,-0.0149,-0.012,-0.0106,-0.008,-0.0056,-0.0047,-0.0061,-0.0053,-0.0027,-0.0009,-0.0035,-0.0101,-0.0121,-0.0082,-0.0211,-0.0215,-0.0183,-0.0174,-0.0131,-0.0203,-0.0204,-0.0205,-0.0206,0,-0.0271,-0.0245,-0.019,-0.0153,-0.0138,-0.0097,-0.0074,-0.0052,-0.0059,-0.0038,-0.0029,-0.0031,-0.005,-0.0029,-0.0109,-0.0074,-0.0106,-0.0156,-0.0161,-0.0175,-0.0201,-0.0227,-0.0219,-0.0218,-0.0217,-0.0216,-0.0215,0,-0.0273,-0.0214,-0.0172,-0.015,-0.0103,-0.0069,-0.004,-0.0033,-0.003,-0.0015,-0.0013,-0.0035,-0.0038,-0.0084,-0.0138,-0.0109,-0.0255,-0.0245,-0.0262,-0.026,-0.0302,-0.0301,-0.0308,-0.0308,-0.0307,-0.0307,-0.0307,0,-0.0252,-0.0222,-0.0156,-0.0127,-0.0079,-0.0043,-0.0008,0.0009,0.0011,-0.0016,0.0016,-0.0038,-0.0046,-0.0124,-0.0161,-0.0232,-0.0269,-0.0253,-0.0279,-0.0261,-0.0255,-0.0305,-0.0304,-0.031,-0.0309,-0.0309,-0.0308,0,-0.0255,-0.0216,-0.0166,-0.0097,-0.0068,-0.0022,0.003,0.0028,0.0049,0.0013,0.0029,-0.0032,-0.0108,-0.0153,-0.0264,-0.0262,-0.0345,-0.0369,-0.0342,-0.0368,-0.03,-0.0293,-0.0357,-0.0357,-0.0356,-0.0356,-0.0356,0,-0.0249,-0.022,-0.0141,-0.0101,-0.0051,0.0014,0.0036,0.0065,0.0042,-0.0024,-0.0071,-0.0124,-0.0165,-0.0294,-0.0345,-0.0393,-0.0396,-0.0404,-0.0325,-0.0287,-0.0307,-0.0301,-0.0295,-0.0356,-0.0356,-0.0356,-0.0356,0,-0.0245,-0.0216,-0.018,-0.0095,-0.0037,-0.0011,0.0021,0.0006,-0.001,-0.0011,-0.012,-0.0154,-0.0257,-0.0314,-0.0337,-0.0396,-0.0373,-0.0401,-0.04,-0.0326,-0.0286,-0.0305,-0.0299,-0.0355,-0.0355,-0.0355,-0.0355,0,-0.0244,-0.0223,-0.017,-0.0093,-0.004,-0.0033,-0.002,-0.0043,-0.0052,-0.0106,-0.018,-0.0253,-0.0295,-0.0327,-0.0402,-0.039,-0.0358,-0.0318,-0.032,-0.0322,-0.0276,-0.0218,-0.0288,0,0,0,0,0,-0.0233,-0.0221,-0.0172,-0.0103,-0.006,-0.0031,-0.0042,-0.005,-0.0084,-0.0136,-0.0131,-0.022,-0.0268,-0.0345,-0.032,-0.0396,-0.037,-0.0367,-0.0327,-0.035,-0.0351,-0.0298,0,0,0,0,0,0,-0.023,-0.0203,-0.0185,-0.0125,-0.0081,-0.0057,-0.0062,-0.0094,-0.0124,-0.0151,-0.0191,-0.0183,-0.0253,-0.0262,-0.031,-0.0318,-0.0281,-0.0394,-0.0393,-0.0349,-0.035,-0.0351,-0.0297,0,0,0,0,0]},{"header":{"parameterUnit":"m.s-1","parameterCategory":2,"la1":30.2991,"la2":30.254,"lo1":-89.0895,"lo2":-89.0444,"dy":0.0017,"dx":0.0017,"nx":28,"ny":28,"refTime":"2023-11-06T09:00:00:Z","depth":"4","parameterNumber":3,"parameterNumberName":"V-component_of_CURRENTS"},"data":[0,0,0,0,0,0,0,0,0,0,0,0,0,0,0,0,0,0,0,0,0,0,0,0,0,0,0,0,0,0,0,0,0,0,0,0,0,0,0,0,0,0,0,0,0,0,0,0,0,0,0,0,0,0,0,0,0,0,0.0412,0.0413,0,0.0514,0.0514,0.0515,0.0583,0.0584,0.0585,0.0586,0.0507,0.0504,0.0501,0,0,0,0,0,0,0,0,0,0,0,0,0,0.0336,0.0336,0.0412,0.0413,0.0415,0.0513,0.0514,0.0515,0.0583,0.0584,0.0585,0.0587,0.0508,0.0504,0.05,0,0,0,0,0,0,0,0,0,0,0,0,0,0.039,0.0336,0.0411,0.0466,0.0472,0.0513,0.0514,0.0515,0.0582,0.0584,0.0586,0.0587,0.0509,0.0504,0.05,0.0439,0,0,0.0486,0.0484,0,0,0,0,0,0,0,0,0.0386,0.0391,0.0456,0.0462,0.0469,0.0543,0.0459,0.0483,0.0582,0.0534,0.0586,0.0588,0.0505,0.0501,0.051,0.0436,0.0432,0.0485,0.0482,0.048,0.0479,0,0,0,0,0,0,0,0.0382,0.0388,0.0445,0.0458,0.0466,0.0506,0.0514,0.0464,0.0501,0.0538,0.0545,0.0566,0.0507,0.0514,0.0508,0.0431,0.0485,0.0481,0.0478,0.0477,0.0295,0.0293,0,0,0,0,0,0,0.0378,0.0384,0.0442,0.0449,0.0438,0.0506,0.0515,0.0512,0.0505,0.0509,0.0565,0.0569,0.0521,0.0513,0.0505,0.0421,0.048,0.0476,0.0473,0.0297,0.0295,0.0293,0,0,0,0,0,0,0.0375,0.0381,0.0438,0.0426,0.0437,0.0506,0.0502,0.0514,0.0557,0.0529,0.0528,0.0602,0.0522,0.0512,0.0463,0.0419,0.0474,0.047,0.03,0.0297,0.0294,0.0259,0,0,0,0,0,0,0.0372,0.0379,0.0398,0.0424,0.0438,0.0469,0.0502,0.0515,0.0569,0.0576,0.0559,0.0552,0.0523,0.047,0.0458,0.0414,0.0466,0.0302,0.0298,0.0295,0.0263,0.0256,0.0249,0,0,0,0,0,0.0369,0.0372,0.0397,0.0406,0.0452,0.047,0.0479,0.0531,0.057,0.0578,0.0558,0.0555,0.0437,0.0464,0.0451,0.0404,0.0304,0.0299,0.0295,0.0266,0.0257,0.0249,0,0,0,0,0,0,0.0348,0.0381,0.0408,0.0423,0.0453,0.0484,0.0522,0.0547,0.0545,0.0559,0.0531,0.052,0.0456,0.0437,0.0468,0.034,0.0368,0.0361,0.0351,0.0342,0.0335,0.0337,0.0462,0,0,0,0,0,0.0353,0.0366,0.0399,0.0417,0.0442,0.0489,0.0516,0.0539,0.0539,0.0547,0.0513,0.0476,0.042,0.0393,0.0341,0.0275,0.0279,0.0235,0.0228,0.0222,0.0213,0.0186,0.0176,0.0278,0.0278,0.0278,0,0,0.0352,0.0375,0.0386,0.0416,0.0458,0.0459,0.0508,0.0548,0.0524,0.0529,0.048,0.045,0.0398,0.0319,0.0288,0.0302,0.0197,0.0216,0.0212,0.0206,0.018,0.0171,0.0162,0.0275,0.0275,0.0276,0,0,0.0352,0.0383,0.0401,0.0415,0.0472,0.0472,0.0488,0.0508,0.0506,0.0454,0.0444,0.0396,0.0311,0.026,0.0226,0.0151,0.0163,0.0133,0.0094,0.0068,0.006,0.0053,0.0061,0.0055,0.0128,0.0127,0.0127,0,0.036,0.0369,0.0409,0.0423,0.0429,0.0474,0.047,0.046,0.0444,0.0417,0.0431,0.0309,0.0275,0.0178,0.0149,0.0133,0.0138,0.0134,0.0061,0.0054,0.0047,0.0057,0.0051,0.0125,0.0125,0.0126,0.0126,0,0.0363,0.0375,0.0389,0.0401,0.0403,0.041,0.0397,0.0375,0.0369,0.0345,0.0263,0.0215,0.0147,0.012,0.0108,0.003,0.0057,0.0061,0.009,0.0035,0.0049,0.0044,0.0122,0.0123,0.0123,0.0124,0,0,0.0351,0.0385,0.0387,0.0388,0.0389,0.0382,0.033,0.0286,0.0255,0.0209,0.015,0.0056,0.0059,0.0021,0.0001,-0.0028,-0.0063,-0.0004,-0.0004,0.0018,-0.0094,-0.0054,-0.0056,-0.0065,-0.0067,-0.0068,-0.0058,0,0.0345,0.0355,0.0354,0.0327,0.0329,0.0314,0.0254,0.0212,0.0174,0.0114,0.0071,0.001,0.0012,-0.001,-0.0045,-0.0064,-0.0083,-0.0064,-0.0057,-0.0057,-0.0004,-0.0064,-0.0074,-0.0062,-0.0064,-0.0064,-0.0065,0,0.0338,0.0342,0.0333,0.029,0.0289,0.0257,0.018,0.0134,0.0061,0.0035,-0.0021,-0.0043,-0.011,-0.0083,-0.0139,-0.0124,-0.0113,-0.0116,-0.0115,-0.0073,-0.0029,-0.0004,-0.0075,-0.0074,-0.0074,-0.0073,-0.0072,0,0.0318,0.0307,0.0295,0.0286,0.0252,0.0221,0.0183,0.0114,0.0074,0.0001,-0.0026,-0.0102,-0.0127,-0.0151,-0.0139,-0.0146,-0.0168,-0.0177,-0.013,-0.0125,-0.0143,-0.0136,-0.0208,-0.0208,-0.0208,-0.0208,-0.0208,0,0.0291,0.0281,0.0292,0.0289,0.0239,0.0216,0.0156,0.0107,0.0049,-0.0007,-0.005,-0.01,-0.0144,-0.0156,-0.0152,-0.0146,-0.0173,-0.0148,-0.0134,-0.0156,-0.0151,-0.0145,-0.0138,-0.0207,-0.0207,-0.0207,-0.0207,0,0.0273,0.029,0.0279,0.0256,0.0243,0.0211,0.0158,0.0113,0.0067,-0.0003,-0.0022,-0.0098,-0.0125,-0.0129,-0.0155,-0.0152,-0.0151,-0.0128,-0.0121,-0.0103,-0.009,-0.0085,-0.0122,-0.0121,-0.012,-0.0119,-0.0118,0,0.026,0.0267,0.0269,0.0258,0.0252,0.0212,0.0179,0.0128,0.0082,-0.0006,-0.0045,-0.0083,-0.0125,-0.0132,-0.0132,-0.011,-0.01,-0.0092,-0.014,-0.0107,-0.0089,-0.0085,-0.0082,-0.0117,-0.0116,-0.0116,-0.0116,0,0.0227,0.0255,0.0249,0.0247,0.0226,0.0185,0.0139,0.0098,0.0027,0.001,-0.0082,-0.0109,-0.013,-0.0148,-0.0096,-0.0087,-0.0111,-0.0083,-0.0086,-0.0132,-0.0101,-0.0083,-0.0081,-0.0112,-0.0113,-0.0113,-0.0113,0,0.0206,0.0199,0.022,0.0204,0.0192,0.0144,0.0115,0.0052,0.0006,-0.0083,-0.0105,-0.0137,-0.0152,-0.0133,-0.0098,-0.007,-0.0095,-0.0111,-0.0114,-0.0117,-0.0116,-0.0076,-0.0083,0,0,0,0,0,0.018,0.0177,0.0163,0.0144,0.0142,0.014,0.0077,0.0047,-0.0009,-0.0073,-0.0095,-0.0114,-0.0117,-0.0124,-0.0096,-0.0083,-0.0078,-0.0049,-0.0094,-0.0093,-0.0097,-0.0093,0,0,0,0,0,0,0.0156,0.016,0.0155,0.0113,0.0102,0.0079,0.0044,0.0001,-0.0045,-0.0089,-0.0089,-0.0089,-0.0079,-0.0111,-0.0082,-0.0076,-0.0103,-0.0038,-0.0038,-0.0091,-0.0095,-0.0098,-0.0095,0,0,0,0,0]}]]